Weather History for Pompano Beach, FL

Change the Weather History Date:

Thursday, November 29, 2012

  Actual Average Record
Temperature  
Mean Temperature 70 °F -  
Max Temperature 77 °F 80 °F 90 °F (1976)
Min Temperature 62 °F 64 °F 36 °F (1950)
Cooling Degree Days 4    
Growing Degree Days 20 (Base 50)    
Moisture  
Dew Point 63 °F    
Average Humidity 78    
Maximum Humidity 100    
Minimum Humidity 62    
Precipitation  
Precipitation 0.12 in - - ()
Sea Level Pressure  
Sea Level Pressure 30.18 in    
Wind  
Wind Speed 12 mph (NE)    
Max Wind Speed 21 mph    
Max Gust Speed 29 mph    
Visibility 10 miles    
Events Rain    
Averages and records for this station are not official NWS values.
T = Trace of Precipitation, MM = Missing Value Source: NWS Daily Summary

Daily Weather History Graph

Daily Weather History Graph

Search for Another Location

Airport:

Trip Planner

Search our weather history database for the weather conditions in past years. The results will help you decide how hot, cold, wet, or windy it might be!

Date:

Astronomy

Nov. 29, 2012 Rise Set
Actual Time 6:49 AM EST 5:27 PM EST
Civil Twilight 6:24 AM EST 5:52 PM EST
Nautical Twilight 5:56 AM EST 6:21 PM EST
Astronomical Twilight 5:28 AM EST 6:49 PM EST
Moon 6:30 PM EST (11/29) 7:34 AM EST (11/29)
Length of Visible Light 11h 28m
Length of Day
10h 38m
Full, 99% of the Moon is Illuminated
Nov 29
Full
Dec 6
Last Quarter
Dec 13
New
Dec 20
First Quarter
Dec 28
Full

Hourly Weather History & Observations

Time (EST) Temp. Dew Point Humidity Pressure Visibility Wind Dir Wind Speed Gust Speed Precip Events Conditions
12:53 AM 66.0 °F 64.0 °F 93% 30.16 in 10.0 mi WNW 9.2 mph - N/A   Mostly Cloudy
1:53 AM 64.9 °F 64.0 °F 97% 30.15 in 10.0 mi North 3.5 mph - N/A   Mostly Cloudy
2:53 AM 63.0 °F 63.0 °F 100% 30.16 in 10.0 mi NW 5.8 mph - N/A   Scattered Clouds
3:53 AM 63.0 °F 63.0 °F 100% 30.16 in 9.0 mi NW 8.1 mph - 0.01 in Rain Light Rain
4:53 AM 62.1 °F 62.1 °F 100% 30.16 in 7.0 mi NW 8.1 mph - 0.01 in Rain Light Rain
5:53 AM 66.0 °F 64.9 °F 96% 30.17 in 6.0 mi West 4.6 mph - 0.10 in Rain Heavy Rain
6:02 AM 64.4 °F 64.4 °F 100% 30.17 in 10.0 mi WNW 6.9 mph - 0.00 in Rain Light Rain
6:20 AM 66.2 °F 64.4 °F 94% 30.17 in 9.0 mi NE 11.5 mph - 0.00 in   Overcast
6:53 AM 71.1 °F 64.0 °F 78% 30.18 in 10.0 mi ENE 16.1 mph 19.6 mph 0.00 in   Overcast
7:53 AM 72.0 °F 63.0 °F 73% 30.19 in 10.0 mi ENE 17.3 mph 21.9 mph N/A   Mostly Cloudy
8:53 AM 73.0 °F 63.0 °F 71% 30.22 in 10.0 mi ENE 15.0 mph 23.0 mph N/A   Scattered Clouds
9:53 AM 75.0 °F 62.1 °F 64% 30.22 in 10.0 mi ENE 15.0 mph 24.2 mph N/A   Scattered Clouds
10:53 AM 75.9 °F 63.0 °F 64% 30.22 in 10.0 mi ENE 20.7 mph 25.3 mph N/A   Scattered Clouds
11:53 AM 77.0 °F 64.0 °F 64% 30.21 in 10.0 mi East 17.3 mph 24.2 mph N/A   Scattered Clouds
12:53 PM 75.9 °F 62.1 °F 62% 30.20 in 10.0 mi NE 17.3 mph - N/A   Partly Cloudy
1:53 PM 75.9 °F 63.0 °F 64% 30.18 in 10.0 mi ENE 12.7 mph 23.0 mph N/A   Mostly Cloudy
2:53 PM 75.0 °F 64.0 °F 69% 30.17 in 10.0 mi ENE 18.4 mph 23.0 mph N/A   Mostly Cloudy
3:53 PM 73.9 °F 63.0 °F 68% 30.17 in 10.0 mi ENE 15.0 mph 23.0 mph N/A   Mostly Cloudy
4:53 PM 73.0 °F 63.0 °F 71% 30.17 in 10.0 mi ENE 16.1 mph 21.9 mph N/A   Mostly Cloudy
5:53 PM 72.0 °F 63.0 °F 73% 30.17 in 10.0 mi ENE 13.8 mph 23.0 mph N/A   Scattered Clouds
6:53 PM 72.0 °F 63.0 °F 73% 30.19 in 10.0 mi ENE 18.4 mph 21.9 mph N/A   Mostly Cloudy
7:53 PM 72.0 °F 62.1 °F 71% 30.19 in 10.0 mi ENE 19.6 mph 26.5 mph N/A   Mostly Cloudy
8:53 PM 72.0 °F 63.0 °F 73% 30.20 in 10.0 mi ENE 20.7 mph 28.8 mph N/A   Mostly Cloudy
9:53 PM 72.0 °F 63.0 °F 73% 30.20 in 10.0 mi ENE 20.7 mph 26.5 mph N/A   Partly Cloudy
10:53 PM 72.0 °F 61.0 °F 68% 30.22 in 10.0 mi East 16.1 mph 24.2 mph N/A   Mostly Cloudy
11:53 PM 71.1 °F 60.1 °F 68% 30.19 in 10.0 mi ENE 17.3 mph - N/A   Mostly Cloudy